Missoula, MT

8:45 PM MST on January 16, 2018 (GMT -0700)
Missoula International

Weather History for KMSO - June, 2013

Change the Weather History Date:

Saturday, June 29, 2013

  Actual Average Record
Temperature  
Mean Temperature 73 °F 64 °F  
Max Temperature 89 °F 80 °F 100 °F (1937)
Min Temperature 56 °F 49 °F 34 °F (1964)
Degree Days  
Heating Degree Days 0 3  
Month to date heating degree days 141 158  
Since 1 June heating degree days 141 158  
Since 1 July heating degree days 6923 7282  
Cooling Degree Days 8 2  
Month to date cooling degree days 32 38  
Year to date cooling degree days 36 44  
Since 1 June cooling degree days 32 38  
Growing Degree Days 22 (Base 50)    
Moisture  
Dew Point 55 °F    
Average Humidity 60    
Maximum Humidity 86    
Minimum Humidity 34    
Precipitation  
Precipitation 0.00 in 0.05 in 0.89 in (1982)
Month to date precipitation 1.69 2.02  
Year to date precipitation 5.81 7.80  
Snow  
Snow 0.00 in - - ()
Month to date snowfall 0.0  
Year to date snowfall 27.4  
Since 1 July snowfall 48.5  
Snow Depth 0.00 in    
Sea Level Pressure  
Sea Level Pressure 30.05 in    
Wind  
Wind Speed 6 mph (NNW)    
Max Wind Speed 25 mph    
Max Gust Speed 32 mph    
Visibility 10 miles    
Events Rain    
T = Trace of Precipitation, MM = Missing Value Source: NWS Daily Summary

Daily Weather History Graph

Daily Weather History Graph

Search for Another Location

Airport or City:

Trip Planner

Search our weather history database for the weather conditions in past years. The results will help you decide how hot, cold, wet, or windy it might be!

Date:

Astronomy

Jun. 29, 2013 Rise Set
Actual Time 5:44 AM MDT 9:34 PM MDT
Civil Twilight 5:05 AM MDT 10:14 PM MDT
Nautical Twilight 4:11 AM MDT 11:08 PM MDT
Astronomical Twilight 2:52 AM MDT 12:26 AM MDT
Moon 12:38 AM MDT (6/29) 1:30 PM MDT (6/29)
Length of Visible Light 17h 09m
Length of Day
15h 50m
Waning Gibbous, 55% of the Moon is Illuminated
Jun 29
Waning Gibbous
Jun 29
Last Quarter
Jul 8
New
Jul 15
First Quarter
Jul 22
Full

Hourly Weather History & Observations

Time (MDT) Temp. Heat Index Dew Point Humidity Pressure Visibility Wind Dir Wind Speed Gust Speed Precip Events Conditions
12:53 AM 68.0 °F - 53.1 °F 59% 30.10 in 10.0 mi ENE 3.5 mph - N/A   Clear
1:53 AM 64.0 °F - 54.0 °F 70% 30.11 in 10.0 mi Calm Calm - N/A   Clear
2:53 AM 62.1 °F - 53.1 °F 72% 30.11 in 10.0 mi North 3.5 mph - N/A   Clear
3:53 AM 60.1 °F - 53.1 °F 78% 30.12 in 10.0 mi Calm Calm - N/A   Clear
4:53 AM 59.0 °F - 53.1 °F 81% 30.11 in 10.0 mi Calm Calm - N/A   Clear
5:53 AM 57.0 °F - 53.1 °F 87% 30.11 in 10.0 mi Calm Calm - N/A   Clear
6:53 AM 57.9 °F - 54.0 °F 87% 30.12 in 10.0 mi Calm Calm - N/A   Clear
7:53 AM 66.9 °F - 54.0 °F 63% 30.11 in 10.0 mi Calm Calm - N/A   Clear
8:53 AM 69.1 °F - 55.9 °F 63% 30.10 in 10.0 mi WNW 3.5 mph - N/A   Clear
9:53 AM 72.0 °F - 55.9 °F 57% 30.11 in 10.0 mi Variable 4.6 mph - N/A   Clear
10:53 AM 75.0 °F - 57.0 °F 53% 30.12 in 10.0 mi West 6.9 mph - N/A   Clear
11:53 AM 73.0 °F - 57.0 °F 57% 30.15 in 10.0 mi Variable 3.5 mph - N/A   Clear
12:53 PM 72.0 °F - 59.0 °F 64% 30.07 in 10.0 mi SE 11.5 mph - 0.00 in Rain Light Rain
1:53 PM 78.1 °F - 57.9 °F 50% 30.06 in 10.0 mi South 3.5 mph - 0.00 in   Clear
2:53 PM 82.9 °F 82.6 °F 57.9 °F 42% 30.02 in 10.0 mi WNW 4.6 mph - N/A   Clear
3:53 PM 84.9 °F 83.3 °F 54.0 °F 34% 30.00 in 10.0 mi Calm Calm - N/A   Clear
4:53 PM 88.0 °F 86.1 °F 55.0 °F 32% 29.97 in 10.0 mi North 11.5 mph - N/A   Clear
5:53 PM 86.0 °F 84.9 °F 57.0 °F 37% 29.96 in 10.0 mi North 16.1 mph 26.5 mph N/A   Clear
6:53 PM 84.9 °F 83.9 °F 57.0 °F 38% 29.95 in 10.0 mi North 18.4 mph 28.8 mph N/A   Clear
7:53 PM 82.9 °F 82.1 °F 55.9 °F 39% 29.93 in 10.0 mi North 17.3 mph 32.2 mph N/A   Clear
8:53 PM 80.1 °F 80.2 °F 55.9 °F 43% 29.93 in 10.0 mi North 13.8 mph 20.7 mph N/A   Scattered Clouds
9:53 PM 78.1 °F - 53.1 °F 42% 29.96 in 10.0 mi NNW 6.9 mph 19.6 mph N/A   Partly Cloudy
10:53 PM 75.0 °F - 53.1 °F 46% 29.97 in 10.0 mi NW 4.6 mph - N/A   Partly Cloudy
11:53 PM 70.0 °F - 55.0 °F 59% 29.99 in 10.0 mi West 3.5 mph - N/A   Clear